Vertical_Velocity
3 5 3 8 6 15 4 32 27 -3 33 12 -9 -42 5 4 8 -1 14 -17 1 1 9 2 -7 -2 0 4 -2 -3 5 1 -10 1 13 1 -0 1 -9 -12 9 4 6 0
2 4 5 7 10 -5 29 4 -0 21 50 -4 -39 20 -4 1 12 -7 3 2 -1 -0 0 -6 -2 10 -7 4 -4 -4 -4 -7 -3 -4 -5 1 -3 3 13 4 -8 6 -2 -3
-0 7 4 8 8 8 22 1 -1 26 15 2 11 -0 12 -7 9 -1 1 6 -3 9 -1 5 10 -11 -2 7 -5 7 -5 1 6 0 4 -4 -8 -2 1 -2 -21 24 24 13
3 2 -0 8 14 12 14 -1 -8 4 -9 -48 -24 2 18 13 1 -6 -5 -2 -4 2 -0 11 -4 -3 -1 4 -0 15 -4 -2 7 14 18 -12 -6 -1 12 -8 8 -15 34 17
2 -2 3 25 5 13 1 8 5 2 4 -2 -1 13 -20 -4 -1 -13 -3 2 7 9 2 12 16 -1 1 6 8 15 -14 -10 2 1 4 13 -20 2 -5 6 5 -9 -1 13
7 5 7 5 6 -7 -10 13 11 11 2 -3 10 -26 -6 26 30 -5 -0 13 7 3 -1 6 4 7 -0 1 18 17 15 6 9 -12 13 9 -37 16 -0 1 0 3 -4 24
6 3 2 -0 7 2 1 16 23 15 -15 -11 -35 -11 6 -8 -2 21 20 10 7 -3 8 6 15 14 11 9 8 12 10 4 0 -3 -1 -32 32 -11 11 1 4 -4 -1 4
-3 1 2 2 -4 -0 -8 13 10 3 4 -11 31 11 3 17 13 10 6 -1 -1 10 14 20 9 7 15 -5 -1 2 7 3 0 -3 -1 -3 -7 2 3 5 12 0 0 0
-1 1 3 7 3 -3 -5 8 -0 5 -2 -10 33 19 14 9 6 -3 -6 4 8 4 9 9 3 1 2 -3 -1 7 5 2 2 -1 -6 -6 5 -22 5 2 -13 -0 -1 3
1 1 -1 -4 -1 -1 -3 1 -2 -3 -10 17 2 -7 1 -11 5 6 7 -1 -3 7 11 8 14 -0 4 -13 0 5 6 1 -3 -1 -6 -6 -10 -7 3 5 -11 10 2 -1
-0 0 -0 1 3 18 3 6 -3 -1 -7 2 -5 -6 -14 2 1 1 -2 9 -7 -2 14 15 6 7 -2 2 2 5 8 4 -2 1 -1 -15 -9 -3 25 -10 -4 2 -4 -8
1 4 2 2 -1 -4 5 7 8 -2 -0 -2 8 11 18 6 -7 4 10 7 -1 -3 17 3 11 3 7 8 -8 2 -14 10 3 6 3 1 -10 6 -13 2 -9 -2 0 1
-3 12 1 -3 -4 -1 6 7 4 3 3 4 6 -2 -1 3 3 7 -2 -0 1 -5 11 15 7 4 5 -4 0 -3 -5 5 -2 1 6 1 -2 -10 -3 6 -5 -4 2 -5
-1 -2 -3 -8 32 3 7 9 4 2 9 -8 -10 2 -5 -1 2 -1 8 1 -8 0 -2 1 -3 2 3 -2 1 -3 3 2 2 1 4 -4 5 -6 -5 -9 5 3 -7 -3
4 3 1 -1 15 -11 2 4 2 8 11 45 -0 8 4 -5 -3 5 6 1 -1 2 -9 -2 -4 -1 -4 -2 3 4 4 5 -1 -2 -11 -3 0 -6 2 -2 10 -1 0 -3
2 6 10 4 14 9 11 6 27 27 16 7 5 7 -9 -6 -4 5 1 -2 0 3 -0 9 6 1 2 4 -1 0 -11 -3 1 2 -1 -2 -1 -3 -6 0 -7 -4 4 3
13 29 23 0 2 33 2 -20 4 3 5 6 13 18 10 15 17 1 2 4 -2 8 6 -3 -2 -7 2 -2 -2 -0 -6 -2 0 3 -7 -1 -4 -6 0 3 -3 0 1 1
0 -3 -8 3 9 5 -1 5 -7 -8 36 1 -4 -17 -8 -4 -15 -8 -7 -0 -4 0 5 -3 -11 3 1 -8 -1 2 1 -7 -6 1 3 -7 0 -4 -2 9 -3 5 0 -2
7 11 21 17 8 15 17 16 13 12 11 4 -1 -0 -0 0 -2 4 -3 -5 2 6 3 -2 1 -4 -4 5 0 7 -8 -10 9 3 -2 -3 -1 -1 -3 2 2 2 -1 0
1 -0 -2 12 5 9 8 10 8 6 -0 -1 6 11 3 11 9 8 6 4 1 -2 -5 -2 2 8 -6 6 -2 -5 -0 -4 -3 -1 1 -6 -1 1 1 -1 -2 2 -1 -2
6 4 5 5 6 8 12 2 4 3 8 10 5 6 11 -6 -2 -4 -3 -8 -1 1 -4 2 -4 -1 3 1 1 -7 -3 -4 -7 -6 -7 -5 -3 -3 -1 -3 -5 -1 1 1
-2 1 -1 0 5 2 2 4 3 1 -0 0 -2 -1 1 1 10 4 -0 4 3 -2 8 2 3 6 2 -4 -5 -4 -1 -4 -3 -3 -5 -5 -10 -6 -5 -3 2 4 2 -1
-1 -2 -3 -2 -1 1 3 3 5 3 4 13 6 5 -4 1 -1 3 -2 -1 -5 1 -4 -4 1 -1 -7 -6 -3 -1 -2 -1 -3 -4 -4 -0 1 1 -1 -1 0 -3 1 -3
-2 -2 -3 -2 -5 -8 -7 -2 1 -1 0 1 0 -4 2 4 -2 -1 1 -2 -1 -4 -3 4 -2 -1 -2 -3 -1 -3 -1 1 1 0 -0 -1 -2 -1 -2 2 0 -3 -2 8
-1 -2 -1 -1 2 1 -1 -0 -1 -0 3 2 -0 -0 1 0 -1 -2 3 -3 -6 -3 -0 -3 -3 -10 -3 -2 1 1 2 2 -1 -2 0 -2 -4 -2 -1 -1 -1 -4 0 1
-1 -2 -1 0 -1 -0 -0 -1 -2 -1 -1 -3 -1 -2 -2 -1 -3 0 -0 -3 -1 1 -3 2 -3 -2 -2 -1 -3 4 2 1 -2 0 1 1 -3 -3 -4 -3 -2 -1 -1 -1
0 -0 -1 -0 -1 -1 -0 -0 -1 0 -1 -1 -1 1 -2 2 -2 -2 -5 -1 -3 -4 2 2 -0 2 2 5 4 -4 3 0 1 -4 -2 -5 -3 -1 -2 1 3 1 -1 -1
Height
5367 5388 5411 5433 5450 5463 5474 5489 5494 5518 5530 5522 5534 5559 5578 5589 5599 5609 5620 5624 5633 5636 5645 5649 5655 5662 5665 5671 5673 5674 5681 5684 5684 5690 5695 5698 5697 5701 5702 5701 5703 5703 5705 5702
5353 5370 5391 5411 5428 5443 5459 5464 5482 5499 5509 5503 5531 5551 5563 5573 5585 5596 5605 5615 5623 5627 5634 5639 5645 5651 5652 5658 5660 5664 5667 5669 5675 5675 5680 5684 5691 5692 5693 5694 5691 5691 5692 5687
5343 5356 5373 5390 5409 5424 5439 5446 5460 5473 5482 5501 5525 5540 5552 5560 5572 5583 5593 5605 5611 5618 5623 5630 5635 5637 5642 5646 5651 5655 5656 5660 5664 5669 5672 5672 5674 5678 5679 5679 5678 5682 5680 5679
5335 5347 5359 5374 5390 5405 5419 5430 5443 5453 5460 5485 5516 5528 5541 5551 5561 5573 5582 5593 5602 5609 5615 5620 5623 5624 5631 5635 5639 5641 5644 5650 5653 5658 5659 5659 5660 5661 5664 5666 5668 5667 5673 5669
5324 5339 5346 5360 5375 5389 5402 5421 5434 5443 5460 5481 5503 5516 5529 5542 5556 5564 5575 5584 5593 5600 5607 5611 5615 5610 5619 5624 5628 5630 5630 5637 5641 5645 5647 5647 5648 5650 5650 5650 5655 5657 5657 5656
5316 5330 5341 5351 5362 5372 5380 5396 5425 5441 5450 5465 5482 5507 5531 5544 5548 5556 5566 5575 5579 5587 5594 5598 5601 5603 5607 5612 5617 5619 5621 5625 5629 5630 5634 5632 5632 5637 5641 5643 5641 5645 5645 5647
5311 5324 5336 5345 5352 5362 5382 5405 5422 5431 5440 5452 5475 5503 5521 5531 5540 5551 5554 5557 5565 5576 5583 5588 5591 5592 5595 5599 5604 5607 5609 5612 5615 5617 5617 5615 5623 5626 5630 5631 5633 5632 5632 5631
5310 5321 5331 5339 5347 5355 5371 5394 5408 5422 5437 5454 5468 5488 5506 5518 5526 5530 5535 5546 5556 5565 5571 5572 5575 5577 5580 5584 5589 5593 5596 5598 5600 5603 5604 5607 5609 5615 5619 5619 5621 5621 5620 5619
5311 5320 5329 5335 5342 5350 5364 5381 5396 5417 5429 5442 5466 5479 5491 5500 5507 5519 5530 5539 5544 5552 5556 5558 5560 5562 5568 5572 5577 5580 5582 5585 5589 5590 5591 5594 5600 5600 5605 5605 5607 5607 5605 5603
5311 5318 5326 5333 5340 5348 5358 5375 5391 5408 5422 5440 5448 5462 5474 5485 5499 5512 5522 5527 5534 5540 5543 5545 5549 5550 5556 5560 5565 5570 5572 5572 5575 5577 5579 5582 5584 5587 5591 5592 5595 5593 5590 5587
5308 5316 5323 5329 5336 5346 5351 5370 5386 5403 5417 5432 5445 5456 5468 5481 5489 5500 5512 5518 5521 5527 5530 5533 5537 5540 5544 5549 5553 5557 5560 5560 5564 5565 5566 5569 5571 5574 5579 5576 5576 5576 5573 5571
5306 5313 5320 5327 5334 5339 5348 5363 5381 5397 5414 5427 5441 5453 5464 5470 5477 5489 5496 5503 5510 5515 5519 5522 5526 5529 5531 5535 5538 5544 5546 5550 5551 5555 5555 5556 5557 5561 5559 5561 5560 5560 5559 5555
5306 5312 5318 5325 5331 5337 5346 5361 5379 5396 5410 5423 5433 5443 5454 5464 5469 5474 5481 5490 5498 5504 5508 5512 5513 5516 5520 5522 5527 5530 5533 5536 5537 5540 5543 5544 5544 5544 5548 5547 5544 5543 5541 5538
5303 5309 5317 5324 5330 5338 5348 5361 5378 5395 5411 5419 5428 5437 5444 5454 5460 5464 5475 5482 5487 5493 5496 5499 5502 5506 5509 5512 5513 5517 5521 5523 5526 5528 5531 5531 5531 5530 5532 5532 5530 5527 5525 5522
5305 5310 5318 5325 5333 5341 5350 5362 5376 5391 5405 5409 5419 5427 5434 5443 5453 5458 5468 5472 5478 5482 5485 5487 5489 5493 5496 5500 5502 5506 5510 5513 5515 5516 5516 5518 5518 5517 5516 5515 5517 5514 5508 5506
5306 5312 5318 5324 5332 5341 5350 5360 5371 5387 5397 5405 5411 5417 5427 5437 5444 5450 5456 5463 5468 5471 5474 5477 5479 5484 5490 5491 5494 5496 5497 5502 5502 5502 5502 5503 5501 5500 5501 5501 5498 5497 5494 5488
5305 5309 5318 5322 5328 5340 5353 5361 5373 5381 5391 5398 5406 5410 5420 5428 5434 5444 5452 5455 5460 5461 5465 5468 5473 5478 5480 5481 5483 5484 5484 5486 5489 5488 5486 5489 5488 5486 5487 5485 5482 5479 5476 5472
5309 5314 5320 5327 5335 5344 5353 5362 5371 5382 5387 5393 5399 5408 5417 5422 5428 5437 5443 5447 5450 5453 5456 5460 5465 5467 5468 5472 5472 5471 5472 5475 5476 5476 5475 5475 5474 5473 5472 5471 5466 5462 5458 5455
5315 5321 5325 5331 5335 5342 5348 5359 5367 5374 5383 5387 5395 5404 5408 5414 5419 5425 5431 5437 5442 5444 5445 5450 5456 5456 5458 5461 5459 5459 5457 5463 5467 5464 5462 5462 5461 5459 5455 5453 5449 5447 5445 5446
5321 5324 5327 5331 5335 5342 5347 5354 5359 5367 5375 5383 5389 5397 5403 5409 5413 5419 5423 5427 5430 5433 5435 5441 5444 5446 5447 5448 5446 5448 5450 5451 5452 5450 5448 5446 5446 5443 5441 5439 5438 5438 5439 5441
5324 5329 5332 5336 5341 5345 5350 5355 5362 5367 5372 5378 5384 5390 5395 5399 5406 5409 5413 5416 5419 5421 5426 5430 5431 5435 5435 5434 5434 5436 5436 5435 5434 5433 5432 5432 5433 5433 5432 5432 5435 5436 5436 5436
5324 5329 5332 5336 5340 5344 5349 5354 5358 5363 5369 5374 5379 5384 5389 5392 5397 5399 5403 5406 5409 5411 5418 5418 5421 5421 5420 5421 5422 5423 5423 5423 5424 5424 5425 5426 5428 5429 5429 5430 5432 5432 5430 5428
5324 5328 5331 5334 5339 5342 5347 5350 5356 5361 5365 5371 5376 5381 5384 5388 5392 5395 5398 5399 5401 5405 5406 5408 5409 5409 5409 5411 5412 5414 5416 5417 5417 5418 5420 5421 5422 5423 5423 5423 5424 5422 5421 5419
5323 5325 5329 5332 5335 5339 5343 5347 5352 5355 5360 5364 5368 5372 5376 5380 5384 5386 5389 5391 5393 5394 5396 5398 5397 5399 5401 5403 5406 5408 5410 5411 5412 5413 5413 5414 5414 5415 5415 5416 5414 5413 5412 5408
5323 5325 5328 5331 5334 5337 5339 5342 5345 5349 5353 5357 5361 5365 5369 5372 5374 5377 5380 5382 5383 5386 5389 5390 5390 5391 5395 5397 5400 5401 5402 5404 5404 5405 5406 5406 5407 5408 5408 5407 5405 5402 5398 5394
5321 5323 5326 5329 5331 5334 5337 5339 5341 5345 5348 5351 5355 5358 5361 5364 5367 5371 5373 5376 5379 5382 5384 5385 5386 5388 5390 5391 5393 5395 5395 5395 5397 5399 5399 5399 5399 5398 5397 5394 5390 5386 5382 5378
5321 5321 5322 5324 5327 5330 5333 5336 5339 5342 5345 5348 5351 5354 5356 5360 5363 5366 5369 5373 5376 5378 5380 5381 5382 5385 5386 5387 5388 5389 5391 5392 5392 5392 5391 5389 5387 5386 5382 5378 5374 5369 5364 5360